Date;Poids;Temperature;Hygrometrie
2024-05-02 02:02:38;37.4;7;82
2024-05-02 00:58:55;37.4;7;82
2024-05-01 23:55:11;37.3;7;82
2024-05-01 22:51:28;37.4;7;82
2024-05-01 21:47:44;37.4;7;82
2024-05-01 20:43:59;37.4;8;82
2024-05-01 19:40:15;37.5;8;82
2024-05-01 18:36:27;37.6;9;82
2024-05-01 17:32:38;37.5;10;81
2024-05-01 16:28:47;37.5;12;81
2024-05-01 15:24:53;37.5;14;81
2024-05-01 14:20:57;37.5;14;82
2024-05-01 13:17:02;37.5;13;82
2024-05-01 12:13:07;37.6;13;82
2024-05-01 11:09:14;37.6;12;82
2024-05-01 10:05:22;37.6;12;82
2024-05-01 09:01:30;37.6;11;82
2024-05-01 07:57:39;37.6;11;82
2024-05-01 06:53:48;37.6;11;81
2024-05-01 05:49:57;37.6;11;81
2024-05-01 04:46:05;37.5;11;81
2024-05-01 03:42:14;37.6;11;81
2024-05-01 02:38:23;37.7;12;81
2024-05-01 01:34:31;37.7;12;81
2024-05-01 00:30:38;37.7;12;81
2024-04-30 23:26:44;37.7;12;81
2024-04-30 22:22:51;37.8;13;81
2024-04-30 21:18:56;37.9;13;81
2024-04-30 20:15:01;37.9;14;81
2024-04-30 19:11:03;38;15;81
2024-04-30 18:07:03;37.6;16;81
2024-04-30 17:03:03;37.5;17;81
2024-04-30 15:59:02;37.9;15;81
2024-04-30 14:55:03;37.5;16;81
2024-04-30 13:51:03;37.3;15;82
2024-04-30 12:47:06;37.4;14;82
2024-04-30 11:43:10;37.5;13;81
2024-04-30 10:39:15;37.5;13;81
2024-04-30 09:35:20;37.5;13;82
2024-04-30 08:31:28;37.5;11;82
2024-04-30 07:27:37;37.5;10;82
2024-04-30 06:23:49;37.6;10;81
2024-04-30 05:20:00;37.6;10;82
2024-04-30 04:16:11;37.6;10;82
2024-04-30 03:12:24;37.6;9;81
2024-04-30 02:08:36;37.7;10;81
2024-04-30 01:04:47;37.7;10;81
2024-04-30 00:00:57;37.7;11;81
2024-04-29 22:57:06;37.8;11;81
2024-04-29 21:53:15;37.7;11;81
2024-04-29 20:49:23;37.8;12;81
2024-04-29 19:45:30;37.8;13;81
2024-04-29 18:41:36;37.9;13;81
2024-04-29 17:37:41;37.9;14;81
2024-04-29 16:33:46;37.9;13;81
2024-04-29 15:29:51;37.9;13;81
2024-04-29 14:25:57;37.9;13;81
2024-04-29 13:22:03;37.8;13;81
2024-04-29 12:18:07;37.8;13;81
2024-04-29 11:14:13;37.9;12;81
2024-04-29 10:10:21;37.9;12;81
2024-04-29 09:06:30;37.8;11;81
2024-04-29 08:02:39;37.9;11;81
2024-04-29 06:58:48;37.9;11;81
2024-04-29 05:54:59;37.9;11;81
2024-04-29 04:51:08;38;11;81
2024-04-29 03:47:18;38;11;81
2024-04-29 02:43:28;38;11;80
2024-04-29 01:39:38;38;11;80
2024-04-29 00:35:48;38.1;11;80
2024-04-28 23:31:58;38.2;11;80
2024-04-28 22:28:07;38.1;11;80
2024-04-28 21:24:17;38.2;12;79
2024-04-28 20:20:26;38.3;12;79
2024-04-28 19:16:33;38.3;13;76
2024-04-28 18:12:37;38.2;15;74
2024-04-28 17:08:39;38.2;15;74
2024-04-28 16:04:41;38.2;15;73
2024-04-28 15:00:43;37.1;15;74
2024-04-28 13:56:46;37.2;15;73
2024-04-28 12:52:50;37.3;13;74
2024-04-28 11:48:58;37.6;12;75
2024-04-28 10:45:06;37.6;12;75
2024-04-28 09:41:15;37.6;11;75
2024-04-28 08:37:26;37.6;11;75
2024-04-28 07:33:38;37.6;10;75
2024-04-28 06:29:49;37.7;10;75
2024-04-28 05:26:00;37.8;11;75
2024-04-28 04:22:11;37.7;11;75
2024-04-28 03:18:19;37.8;12;75
2024-04-28 02:14:26;37.8;13;75
2024-04-28 01:10:33;37.8;13;75
2024-04-28 00:06:41;37.9;12;75
2024-04-27 23:02:50;37.9;12;75
2024-04-27 21:58:59;37.9;12;75
2024-04-27 20:55:08;37.9;12;75
2024-04-27 19:51:16;37.9;12;74
2024-04-27 18:47:25;38;12;74
2024-04-27 17:43:32;38.1;12;74
2024-04-27 15:35:51;38;12;73
2024-04-27 14:31:58;38;12;73
2024-04-27 13:28:08;37.9;12;72
2024-04-27 12:24:15;38;12;72
2024-04-27 11:20:24;38.1;11;72
2024-04-27 10:16:35;38;11;71
2024-04-27 09:12:45;38;11;72
2024-04-27 08:08:56;38.1;11;72
2024-04-27 07:05:07;38.2;11;72
2024-04-27 06:01:18;38.3;11;71
2024-04-27 04:57:29;38.3;11;71
2024-04-27 03:53:39;38.3;11;70
2024-04-27 02:49:50;38.4;11;70
2024-04-27 01:46:01;38.4;11;69
2024-04-27 00:42:12;38.5;11;68
2024-04-26 23:38:23;38.6;11;67
2024-04-26 22:34:34;38.6;11;67
2024-04-26 21:30:45;38.7;11;66
2024-04-26 20:26:54;38.8;13;65
2024-04-26 19:22:58;38.8;16;64
2024-04-26 18:18:56;38.8;19;63
2024-04-26 17:14:50;38.9;20;63
2024-04-26 16:10:43;38.5;20;64
2024-04-26 15:06:33;37.5;21;64
2024-04-26 14:02:24;36.8;19;67
2024-04-26 12:58:22;36.7;16;69
2024-04-26 11:54:25;36.8;15;70
2024-04-26 10:50:31;36.7;12;71
2024-04-26 09:46:41;36.7;11;72
2024-04-26 08:42:54;36.8;9;71
2024-04-26 07:39:10;36.8;8;70
2024-04-26 06:35:26;36.8;8;70
2024-04-26 05:31:42;36.9;9;69
2024-04-26 04:27:57;36.9;9;68
2024-04-26 03:24:12;37.1;9;68
2024-04-26 02:20:25;37.1;10;67
2024-04-26 01:16:39;37.1;10;67
2024-04-26 00:12:53;37.2;10;66
2024-04-25 23:09:06;37.2;10;64
2024-04-25 22:05:19;37.2;10;63
2024-04-25 21:01:30;37.3;12;62
2024-04-25 19:57:35;37.4;15;61
2024-04-25 18:53:35;37.4;17;61
2024-04-25 17:49:30;37;19;61
2024-04-25 16:45:28;36.3;18;62
2024-04-25 15:41:27;35.7;16;64
2024-04-25 14:37:30;36.3;14;66
2024-04-25 13:33:36;36.4;12;67
2024-04-25 12:29:47;36.6;11;67
2024-04-25 11:25:58;36.7;11;67
2024-04-25 10:22:10;36.5;10;67
2024-04-25 09:18:25;36.4;9;68
2024-04-25 08:14:41;36.5;8;67
2024-04-25 07:10:59;36.6;7;67
2024-04-25 06:07:17;36.5;7;67
2024-04-25 05:03:35;36.6;7;66
2024-04-25 03:59:53;36.6;7;66
2024-04-25 02:56:11;36.5;7;65
2024-04-25 01:52:28;36.6;8;65
2024-04-25 00:48:45;36.6;8;64
2024-04-24 23:45:02;36.7;8;64
2024-04-24 22:41:19;36.7;8;63
2024-04-24 21:37:36;36.6;8;63
2024-04-24 20:33:52;36.6;9;62
2024-04-24 19:30:07;36.7;9;62
2024-04-24 18:26:22;36.7;9;61
2024-04-24 17:22:36;36.7;10;61
2024-04-24 16:18:50;36.8;7;62
2024-04-24 15:15:08;36.7;6;61
2024-04-24 14:11:28;36.7;6;59
2024-04-24 13:07:46;36.7;7;57
2024-04-24 12:04:03;36.8;8;56
2024-04-24 11:12:37;36.8;8;56
2024-04-24 09:56:38;36.8;6;56
2024-04-24 08:52:58;36.8;5;56
2024-04-24 07:49:20;36.8;4;56
2024-04-24 06:45:44;36.8;2;55
2024-04-24 05:42:10;36.9;2;55
2024-04-24 04:38:34;36.9;3;55
2024-04-24 03:34:59;36.9;3;54
2024-04-24 02:31:24;37;4;53
2024-04-24 01:27:47;36.9;4;53
2024-04-24 00:24:08;37;5;52
2024-04-23 23:20:29;37;6;51
2024-04-23 22:16:46;37.1;8;50
2024-04-23 21:13:02;37;9;49
2024-04-23 20:09:17;37.2;10;49
2024-04-23 19:05:29;37.1;12;48
2024-04-23 18:01:39;37.1;12;48
2024-04-23 16:57:48;37.2;14;49
2024-04-23 15:53:54;37.1;13;50
2024-04-23 14:49:59;37;14;50
2024-04-23 13:46:06;37;12;52
2024-04-23 12:42:16;37;11;53
2024-04-23 11:38:26;37.1;11;53
2024-04-23 10:34:39;37.1;8;55
2024-04-23 09:30:57;37;4;56
2024-04-23 08:27:21;37.1;0;56
2024-04-23 07:23:48;37;0;55
2024-04-23 06:20:14;37.1;0;55
2024-04-23 05:16:39;37.1;2;54
2024-04-23 04:13:03;37.2;3;53
2024-04-23 03:09:27;37.3;3;53
2024-04-23 02:05:50;37.2;3;52
2024-04-23 01:02:12;37.4;4;51
2024-04-22 23:58:34;37.3;5;50
2024-04-22 22:54:54;37.4;6;49
2024-04-22 21:51:12;37.4;7;49
2024-04-22 20:47:28;37.4;9;48
2024-04-22 19:43:42;37.5;11;48
2024-04-22 18:39:49;37.6;15;46
2024-04-22 17:35:51;37.5;15;47
2024-04-22 16:31:56;37.5;15;48
2024-04-22 15:27:59;37.4;16;49
2024-04-22 14:24:00;37.4;15;51
2024-04-22 13:20:06;37.4;12;53
2024-04-22 12:16:15;37.4;12;55
2024-04-22 11:12:25;37.5;10;57
2024-04-22 10:08:39;37.5;7;60
2024-04-22 09:04:59;37.5;4;61
2024-04-22 08:01:23;37.5;1;61
2024-04-22 06:57:50;37.5;0;60
2024-04-22 05:54:18;37.6;0;59
2024-04-22 04:50:45;37.6;0;58
2024-04-22 03:47:11;37.7;2;57
2024-04-22 02:43:34;37.7;3;57
2024-04-22 01:39:57;37.7;4;56
2024-04-22 00:36:18;37.8;5;55
2024-04-21 23:32:38;37.9;5;54
2024-04-21 22:28:57;37.9;6;54
2024-04-21 21:25:15;38;9;53
2024-04-21 20:21:25;38.1;13;52
2024-04-21 19:17:26;38.1;18;51
2024-04-21 18:13:19;38;20;50
2024-04-21 17:09:13;38;19;52
2024-04-21 16:05:04;37.7;21;54
2024-04-21 15:00:55;37;19;55
2024-04-21 13:56:51;36.7;17;59
2024-04-21 12:52:52;36.5;15;62
2024-04-21 11:48:56;36.7;13;65
2024-04-21 10:45:06;37;9;67
2024-04-21 09:41:24;37;3;68
2024-04-21 08:37:50;37;0;68
2024-04-21 07:34:17;37;0;67
2024-04-21 06:30:46;37.1;0;66
2024-04-21 05:27:13;37.1;0;66
2024-04-21 04:23:41;37.1;0;65
2024-04-21 03:20:07;37.2;1;65
2024-04-21 02:16:32;37.3;2;64
2024-04-21 01:12:56;37.3;3;64
2024-04-21 00:09:18;37.4;5;63
2024-04-20 23:05:38;37.5;6;62
2024-04-20 22:01:56;37.5;8;62
2024-04-20 20:58:11;37.5;11;61
2024-04-20 19:54:12;37.7;19;58
2024-04-20 18:50:04;37.7;22;58
2024-04-20 17:45:51;37.4;22;59
2024-04-20 16:41:39;37.1;22;61
2024-04-20 15:37:28;36.8;21;64
2024-04-20 14:33:18;36.5;20;67
2024-04-20 13:29:13;36.2;18;70
2024-04-20 12:25:11;36.1;16;72
2024-04-20 11:21:12;36.2;15;75
2024-04-20 10:17:17;36.5;11;78
2024-04-20 09:13:32;36.5;5;80
2024-04-20 08:09:55;36.6;2;79
2024-04-20 07:06:21;36.7;1;78
2024-04-20 06:02:48;36.6;1;78
2024-04-20 04:59:13;36.8;2;78
2024-04-20 03:55:37;36.8;2;77
2024-04-20 02:52:01;36.9;3;77
2024-04-20 01:48:24;36.9;3;77
2024-04-20 00:44:46;36.9;4;77
2024-04-19 23:41:07;37;6;76
2024-04-19 22:37:25;37;8;76
2024-04-19 21:33:38;37.1;11;75
2024-04-19 20:29:44;37.2;17;74
2024-04-19 19:25:35;37.3;21;74
2024-04-19 18:21:21;37.1;24;77
2024-04-19 17:17:04;36.9;24;79
2024-04-19 16:12:48;36.7;23;80
2024-04-19 15:08:34;36.4;21;80
2024-04-19 14:04:25;36.1;19;81
2024-04-19 13:00:20;36;17;82
2024-04-19 11:56:21;36.1;14;82
2024-04-19 10:52:29;36.3;10;84
2024-04-19 09:48:47;36.4;3;83
2024-04-19 08:45:13;36.4;0;83
2024-04-19 07:41:40;36.4;0;83
2024-04-19 06:38:08;36.4;0;82
2024-04-19 05:34:35;36.5;0;82
2024-04-19 04:31:02;36.5;0;82
2024-04-19 03:27:28;36.5;1;82
2024-04-19 02:23:52;36.5;2;82
2024-04-19 01:20:15;36.6;4;82
2024-04-19 00:16:34;36.6;6;82
2024-04-18 23:12:55;36.6;5;82
2024-04-18 22:09:15;36.6;5;82
2024-04-18 21:05:34;36.7;7;82
2024-04-18 20:01:48;36.7;11;81
2024-04-18 18:57:55;36.8;12;82
2024-04-18 17:54:01;36.8;12;82
2024-04-18 16:50:10;36.8;9;83
2024-04-18 15:46:21;36.7;13;81
2024-04-18 14:42:29;36.6;12;82
2024-04-18 13:38:42;36.5;7;82
2024-04-18 12:34:58;36.4;10;81
2024-04-18 11:31:11;36.5;9;81
2024-04-18 10:27:26;36.6;7;81
2024-04-18 09:23:44;36.7;6;81
2024-04-18 08:20:04;36.8;5;81
2024-04-18 07:16:23;36.9;5;81
2024-04-18 06:12:44;36.9;5;80
2024-04-18 05:09:04;36.8;5;78
2024-04-18 04:05:23;36.8;8;64
2024-04-18 03:01:39;36.7;9;63
2024-04-18 01:57:54;36.7;9;62
2024-04-18 00:54:08;36.8;9;61
2024-04-17 23:50:23;36.8;10;61
2024-04-17 22:46:36;36.9;10;60
2024-04-17 21:42:49;37;10;59
2024-04-17 20:39:01;36.9;11;59
2024-04-17 19:35:12;37;11;58
2024-04-17 18:31:20;37;13;57
2024-04-17 17:27:24;37;15;57
2024-04-17 16:23:29;36.8;15;59
2024-04-17 15:19:34;36.8;15;60
2024-04-17 14:15:36;36.3;15;64
2024-04-17 13:11:42;36.4;14;65
2024-04-17 12:07:49;36.4;13;68
2024-04-17 11:04:00;36.4;10;70
2024-04-17 10:00:13;36.4;9;71
2024-04-17 08:56:28;36.5;7;72
2024-04-17 07:52:46;36.5;7;71
2024-04-17 06:49:04;36.5;7;70
2024-04-17 05:45:21;36.6;7;69
2024-04-17 04:41:38;36.6;7;69
2024-04-17 03:37:56;36.7;7;68
2024-04-17 02:34:13;36.7;7;68
2024-04-17 01:30:31;36.8;7;67
2024-04-17 00:26:47;36.8;8;66
2024-04-16 23:23:02;36.9;9;65
2024-04-16 22:19:16;36.9;10;65
2024-04-16 21:15:29;37;10;64
2024-04-16 20:11:40;37;11;62
2024-04-16 19:07:50;37.1;13;60
2024-04-16 18:03:56;37;15;59
2024-04-16 16:59:57;37.1;15;61
2024-04-16 15:55:59;36.8;15;64
2024-04-16 14:52:02;36.5;14;66
2024-04-16 13:48:08;36.6;13;68
2024-04-16 12:44:16;36.6;12;71
2024-04-16 11:40:26;36.5;11;73
2024-04-16 10:36:39;36.8;9;74
2024-04-16 09:32:55;36.7;8;75
2024-04-16 08:29:11;36.8;8;74
2024-04-16 07:25:27;36.8;9;73
2024-04-16 06:21:41;36.8;9;72
2024-04-16 05:17:56;36.8;9;71
2024-04-16 04:14:10;36.8;9;70
2024-04-16 03:10:24;36.9;9;69
2024-04-16 02:06:36;36.9;10;68
2024-04-16 01:02:49;37;10;68
2024-04-15 23:59:00;37;11;68
2024-04-15 22:55:10;37;12;68
2024-04-15 21:51:19;37.1;13;68
2024-04-15 20:47:26;37.1;14;68
2024-04-15 19:43:31;37;16;67
2024-04-15 18:39:30;36.9;17;67
2024-04-15 17:35:32;37;15;68
2024-04-15 16:31:35;36.9;16;68
2024-04-15 15:27:37;36.9;15;68
2024-04-15 14:23:38;36.8;16;68
2024-04-15 13:19:39;36.7;16;69
2024-04-15 12:15:44;36.7;13;70
2024-04-15 11:11:52;36.7;13;69
2024-04-15 10:07:59;36.8;13;68
2024-04-15 09:04:05;36.8;13;67
2024-04-15 08:00:14;36.8;11;66
2024-04-15 06:56:27;36.9;10;65
2024-04-15 05:52:42;37;9;64
2024-04-15 04:48:56;37;9;64
2024-04-15 03:45:10;37.1;10;63
2024-04-15 02:41:22;37.2;11;62
2024-04-15 01:37:32;37.3;12;61
2024-04-15 00:33:40;37.4;14;59
2024-04-14 23:29:43;37.6;16;58
2024-04-14 22:25:42;37.7;18;57
2024-04-14 21:21:37;37.8;21;55
2024-04-14 20:17:21;37.9;27;53
2024-04-14 19:12:54;37.5;32;52
2024-04-14 18:08:19;37.3;34;52
2024-04-14 17:03:42;37.3;37;53
2024-04-14 15:59:05;37.2;35;55
2024-04-14 14:54:29;36.9;33;58
2024-04-14 13:49:57;36.7;32;62
2024-04-14 12:45:30;36.3;27;66
2024-04-14 11:41:12;36;22;70
2024-04-14 10:37:06;35.7;16;72
2024-04-14 09:33:12;35.7;11;73
2024-04-14 08:29:26;35.8;8;72
2024-04-14 07:25:43;35.9;7;72
2024-04-14 06:22:00;35.9;8;71
2024-04-14 05:18:16;36;8;71
2024-04-14 04:14:31;36.1;9;70
2024-04-14 03:10:45;36.1;10;69
2024-04-14 02:06:56;36.2;11;69
2024-04-14 01:03:05;36.4;12;68
2024-04-13 23:59:12;36.5;14;67
2024-04-13 22:55:14;36.6;16;65
2024-04-13 21:51:13;36.8;19;64
2024-04-13 20:47:02;36.9;24;61
2024-04-13 19:42:36;36.7;33;57
2024-04-13 18:37:58;36.5;38;56
2024-04-13 17:33:17;36.4;36;58
2024-04-13 16:28:39;36.1;35;62
2024-04-13 15:24:03;35.9;34;66
2024-04-13 14:19:30;35.7;31;70
2024-04-13 13:15:03;35.3;27;75
2024-04-13 12:10:44;35.2;22;79
2024-04-13 11:06:35;34.9;17;81
2024-04-13 10:02:40;34.9;11;83
2024-04-13 08:58:54;35.2;7;82
2024-04-13 07:55:11;35.2;5;82
2024-04-13 06:51:30;35.2;5;81
2024-04-13 05:47:48;35.3;6;81
2024-04-13 04:44:06;35.4;7;81
2024-04-13 03:40:22;35.4;7;81
2024-04-13 02:36:37;35.5;9;80
2024-04-13 01:32:50;35.6;10;80
2024-04-13 00:29:01;35.7;11;79
2024-04-12 23:25:10;35.7;12;78
2024-04-12 22:21:15;35.8;15;77
2024-04-12 21:17:14;36;19;76
2024-04-12 20:13:01;36.2;26;73
2024-04-12 19:08:32;35.7;32;71
2024-04-12 18:03:58;35.5;33;73
2024-04-12 16:59:25;35.3;31;76
2024-04-12 15:54:56;35.1;29;79
2024-04-12 14:50:29;34.8;27;82
2024-04-12 13:46:07;34.6;24;85
2024-04-12 12:41:49;34.4;21;86
2024-04-12 11:37:42;34.1;16;87
2024-04-12 10:33:46;34.2;11;88
2024-04-12 09:29:59;34.4;6;88
2024-04-12 07:22:40;34.5;3;88
2024-04-12 06:19:01;34.5;3;88
2024-04-12 05:15:22;34.5;4;88
2024-04-12 04:11:42;34.6;4;88
2024-04-12 03:08:01;34.7;5;88
2024-04-12 02:04:20;34.8;6;88
2024-04-12 01:00:37;34.8;6;88
2024-04-11 23:56:53;34.9;8;87
2024-04-11 22:53:07;35;9;87
2024-04-11 21:49:16;35.1;12;87
2024-04-11 20:45:20;35.2;16;86
2024-04-11 19:41:11;35.1;23;85
2024-04-11 18:36:54;34.8;23;85
2024-04-11 17:32:35;34.5;24;86
2024-04-11 16:28:15;34.1;24;87
2024-04-11 15:24:00;34;21;87
2024-04-11 14:19:49;33.9;20;88
2024-04-11 13:15:41;33.7;18;89
2024-04-11 12:11:38;33.5;16;89
2024-04-11 11:07:40;33.7;12;90
2024-04-11 10:03:49;33.6;8;91
2024-04-11 09:00:08;33.9;4;90
2024-04-11 07:56:30;33.8;2;89
2024-04-11 06:52:53;33.8;2;89
2024-04-11 05:49:14;33.9;3;89
2024-04-11 04:45:34;33.9;5;88
2024-04-11 03:41:52;34;7;89
2024-04-11 02:38:07;34;8;89
2024-04-11 01:34:22;34;8;89
2024-04-11 00:30:35;34.1;9;89
2024-04-10 23:26:49;34.2;9;89
2024-04-10 22:23:01;34.2;10;88
2024-04-10 21:19:10;34.3;11;88
2024-04-10 20:15:17;34.3;13;87
2024-04-10 19:11:17;34.2;16;88
2024-04-10 18:07:17;34;16;88
2024-04-10 17:03:16;34.1;16;88
2024-04-10 15:59:16;34;15;88
2024-04-10 14:55:15;33.8;15;89
2024-04-10 13:51:19;33.8;13;90
2024-04-10 12:47:24;33.8;12;90
2024-04-10 11:43:32;33.8;10;90
2024-04-10 10:39:43;33.8;9;90
2024-04-10 09:35:56;33.8;8;91
2024-04-10 08:32:12;33.9;6;91
2024-04-10 07:28:29;33.8;6;90
2024-04-10 06:24:47;34;6;90
2024-04-10 05:21:04;33.9;6;90
2024-04-10 04:17:21;33.9;6;90
2024-04-10 03:13:38;34;7;90
2024-04-10 02:09:56;34;6;90
2024-04-10 01:06:12;34.1;6;90
2024-04-10 00:02:29;34.1;6;90
2024-04-09 22:58:46;34.2;6;90
2024-04-09 21:55:03;34.4;6;89
2024-04-09 20:51:20;34.4;7;89
2024-04-09 19:47:36;34.4;7;89
2024-04-09 18:43:47;34.2;14;89
2024-04-09 17:39:53;34.2;13;87
2024-04-09 16:35:58;34.4;14;85
2024-04-09 15:31:58;34;15;88
2024-04-09 14:28:01;33.9;12;90
2024-04-09 13:24:09;34;11;90
2024-04-09 12:20:19;34;10;90
2024-04-09 11:20:59;34;9;90
2024-04-09 10:12:43;34;9;89
2024-04-09 09:08:57;34.1;8;89
2024-04-09 08:05:13;34.2;7;88
2024-04-09 07:01:29;34.1;7;88
2024-04-09 05:57:44;34.1;7;88
2024-04-09 04:54:00;34.2;7;87
2024-04-09 03:50:16;34.1;8;87
2024-04-09 02:46:30;34.2;8;86
2024-04-09 01:42:43;34.2;9;82
2024-04-09 00:38:54;34.2;11;81
2024-04-08 23:35:00;34.3;13;81
2024-04-08 22:31:05;34.2;14;80
2024-04-08 21:27:08;34.4;15;79
2024-04-08 20:23:10;34.4;15;78
2024-04-08 19:19:10;34.2;16;77
2024-04-08 18:15:08;34.3;17;76
2024-04-08 17:11:04;34.1;17;76
2024-04-08 16:07:01;34.1;17;78
2024-04-08 15:02:57;33.9;18;79
2024-04-08 13:59:21;33.8;19;80
2024-04-08 12:54:44;33.6;19;81
2024-04-08 11:50:38;33.6;17;83
2024-04-08 10:46:37;33.5;15;84
2024-04-08 09:42:39;33.7;14;84
2024-04-08 08:38:44;33.7;13;84
2024-04-08 07:34:50;33.7;13;84
2024-04-08 06:30:55;33.8;13;84
2024-04-08 05:27:01;33.8;13;84
2024-04-08 04:23:07;33.8;13;84
2024-04-08 03:19:13;33.8;13;83
2024-04-08 02:15:19;33.9;13;83
2024-04-08 01:11:25;34;13;82
2024-04-08 00:07:30;34;13;82
2024-04-07 23:03:34;34;14;81
2024-04-07 21:59:36;34;15;81
2024-04-07 20:55:38;34.1;15;80
2024-04-07 19:51:36;34;17;80
2024-04-07 18:47:34;34;17;81
2024-04-07 17:43:32;34.1;17;82
2024-04-07 16:39:28;33.9;17;83
2024-04-07 15:35:24;33.8;16;84
2024-04-07 14:31:22;33.8;16;84
2024-04-07 13:27:20;33.6;16;85
2024-04-07 12:23:20;33.5;16;85
2024-04-07 11:19:21;33.5;15;86
2024-04-07 10:15:24;33.5;14;86
2024-04-07 09:11:29;33.5;13;86
2024-04-07 08:07:34;33.5;13;86
2024-04-07 07:03:40;33.6;13;86
2024-04-07 05:59:46;33.6;13;86
2024-04-07 04:55:52;33.6;13;86
2024-04-07 03:51:57;33.7;13;86
2024-04-07 02:48:02;33.7;13;85
2024-04-07 01:44:08;33.7;13;85
2024-04-07 00:40:13;33.8;13;85
2024-04-06 23:36:18;33.8;13;85
2024-04-06 22:32:22;33.8;13;85
2024-04-06 21:28:27;33.9;14;84
2024-04-06 20:24:30;33.9;14;84
2024-04-06 19:20:31;34;15;83
2024-04-06 18:16:29;34;17;82
2024-04-06 17:12:21;33.6;22;80
2024-04-06 16:08:05;33.3;22;82
2024-04-06 15:03:52;33.4;20;84
2024-04-06 13:59:42;33.5;20;85
2024-04-06 12:55:34;33.4;19;85
2024-04-06 11:51:27;33.3;18;86
2024-04-06 10:47:23;33.1;16;86
2024-04-06 09:43:25;33.2;13;87
2024-04-06 08:39:32;33.2;12;87
2024-04-06 07:35:40;33.4;11;87
2024-04-06 06:31:50;33.4;10;87
2024-04-06 05:27:59;33.4;11;87
2024-04-06 04:24:08;33.5;11;87
2024-04-06 03:20:16;33.5;11;87
2024-04-06 02:16:24;33.5;12;87
2024-04-06 01:12:30;33.5;12;87
2024-04-06 00:08:37;33.6;13;87
2024-04-05 23:04:41;33.6;12;87
2024-04-05 22:00:47;33.6;13;87
2024-04-05 20:56:52;33.8;13;86
2024-04-05 19:52:55;33.8;16;86
2024-04-05 18:48:47;33.7;20;85
2024-04-05 17:44:34;33.5;23;85
2024-04-05 16:40:18;33.3;23;85
2024-04-05 15:36:02;33.2;23;86
2024-04-05 14:31:46;33.1;22;88
2024-04-05 13:27:33;33;21;88
2024-04-05 12:23:21;32.9;20;89
2024-04-05 11:19:13;32.9;18;90
2024-04-05 10:15:11;32.9;15;90
2024-04-05 09:11:12;33;14;90
2024-04-05 08:07:17;33;12;90
2024-04-05 07:03:23;33.1;12;90
2024-04-05 05:59:29;33.1;12;90
2024-04-05 04:55:37;33.1;11;90
2024-04-05 03:51:44;33.2;11;90
2024-04-05 02:47:52;33.3;12;90
2024-04-05 01:43:58;33.3;13;90
2024-04-05 00:40:03;33.3;13;90
2024-04-04 23:36:06;33.4;14;90
2024-04-04 22:32:09;33.5;14;89
2024-04-04 21:28:10;33.6;15;88
2024-04-04 20:24:08;33.6;18;87
2024-04-04 19:19:55;33.5;22;86
2024-04-04 18:15:34;33.1;27;85
2024-04-04 17:11:07;33;28;87
2024-04-04 16:06:41;32.8;27;89
2024-04-04 15:02:15;32.8;27;90
2024-04-04 13:57:54;33.3;24;89
2024-04-04 12:53:37;33.8;21;90
2024-04-04 11:49:29;34.1;16;91
2024-04-04 10:45:34;34.7;10;91
2024-04-04 09:41:48;35;5;91
2024-04-04 08:38:08;35;3;91
2024-04-04 07:34:28;35.2;3;91
2024-04-04 06:30:49;35.2;3;90
2024-04-04 05:27:09;35.3;3;90
2024-04-04 04:23:29;35.3;4;90
2024-04-04 03:19:49;35.4;5;90
2024-04-04 02:16:07;35.5;5;90
2024-04-04 01:12:24;35.6;6;89
2024-04-04 00:08:40;35.6;7;89
2024-04-03 23:04:53;35.7;9;89
2024-04-03 22:01:04;35.8;11;89
2024-04-03 20:57:11;35.8;13;88
2024-04-03 19:53:10;35.7;18;88
2024-04-03 18:49:02;35.6;19;89
2024-04-03 17:44:50;35.4;22;88
2024-04-03 16:40:36;35.8;21;88
2024-04-03 15:36:25;36.5;19;90
2024-04-03 14:32:20;37.2;18;90
2024-04-03 13:28:16;37.9;15;90
2024-04-03 12:24:14;38.5;16;89
2024-04-03 11:20:14;39.1;14;90
2024-04-03 10:16:19;39.1;11;91
2024-04-03 09:12:28;39.5;9;91
2024-04-03 08:08:42;39.7;8;90
2024-04-03 07:04:54;39.8;9;90
2024-04-03 06:01:05;39.8;9;90
2024-04-03 04:57:17;39.8;9;90
2024-04-03 03:53:28;39.9;10;90
2024-04-03 02:49:39;40;10;90
2024-04-03 01:45:51;40;9;90
2024-04-03 00:42:03;40.1;10;90
2024-04-02 23:38:14;40.2;10;90
2024-04-02 22:34:24;40.2;10;90
2024-04-02 21:30:34;40.3;10;89
2024-04-02 20:26:44;40.3;11;89
2024-04-02 19:22:51;40.3;13;88
2024-04-02 18:18:51;40.2;18;86
2024-04-02 17:14:41;40.1;21;87
2024-04-02 16:10:29;40.2;20;87
2024-04-02 15:06:17;40;21;89
2024-04-02 14:02:07;39.9;18;89
2024-04-02 12:58:05;39.9;15;90
2024-04-02 11:54:08;39.9;12;90
2024-04-02 10:50:18;40;8;91
2024-04-02 09:46:36;40;4;91
2024-04-02 08:42:58;40.1;1;90
2024-04-02 07:39:21;40.1;1;89
2024-04-02 06:35:44;40.1;2;89
2024-04-02 05:32:04;40.2;4;89
2024-04-02 04:28:23;40.3;5;89
2024-04-02 03:24:40;40.3;6;89
2024-04-02 02:20:57;40.2;5;89
2024-04-02 01:17:17;40.3;3;89
2024-04-02 00:13:38;40.3;3;89
2024-04-01 23:09:57;40.4;4;88
2024-04-01 22:06:16;40.5;6;88
2024-04-01 21:02:32;40.5;7;88
2024-04-01 19:58:44;40.6;11;87
2024-04-01 18:54:55;40.6;11;87
2024-04-01 17:50:55;40.6;21;86
2024-04-01 16:46:43;40.2;21;88
2024-04-01 15:42:32;24.8;19;88
2024-04-01 14:38:26;24.7;17;88
2024-04-01 13:34:23;24.7;16;89
2024-04-01 12:30:22;24.6;15;89
2024-04-01 11:26:25;24.6;12;90
2024-04-01 10:22:35;24.7;8;90
2024-04-01 09:18:53;24.7;4;90
2024-04-01 08:15:13;24.7;3;89
2024-04-01 07:11:33;24.7;5;89
2024-04-01 06:07:52;24.7;5;88
2024-04-01 05:04:09;24.7;6;89
2024-04-01 04:00:26;24.8;6;89
2024-04-01 02:56:43;24.8;6;89
2024-04-01 01:52:59;24.9;7;89
2024-04-01 00:49:15;24.9;7;88
2024-03-31 23:45:30;25;8;89
2024-03-31 22:41:45;24.9;9;87
2024-03-31 21:37:53;25;12;88
2024-03-31 20:33:59;25;12;88
2024-03-31 19:30:05;25;12;88
2024-03-31 18:26:10;25;13;87
2024-03-31 17:22:12;25;16;87
2024-03-31 16:18:09;24.9;17;88
2024-03-31 15:14:04;24.8;17;89
2024-03-31 14:10:03;24.9;15;89
2024-03-31 13:06:03;24.9;15;89
2024-03-31 12:02:04;24.8;16;88
2024-03-31 10:58:04;24.7;15;90
2024-03-31 09:54:08;24.7;13;90
2024-03-31 08:50:15;24.7;11;89
2024-03-31 07:46:24;24.8;11;89
2024-03-31 06:42:33;24.8;11;89
2024-03-31 05:38:43;24.8;11;89
2024-03-31 04:34:52;24.9;11;89
2024-03-31 03:31:02;24.8;10;90
2024-03-31 02:27:11;24.9;11;89
2024-03-31 01:23:20;24.9;11;89
2024-03-31 00:19:29;24.9;11;89
2024-03-30 23:15:37;25;11;89
2024-03-30 22:11:47;25.1;11;89
2024-03-30 21:07:57;25.1;11;89
2024-03-30 20:04:05;25.1;13;87
2024-03-30 19:00:05;25.1;17;87
2024-03-30 17:56:01;25.1;15;89
2024-03-30 16:52:02;25.2;15;89
2024-03-30 15:48:02;25.1;16;87
2024-03-30 14:43:59;24.8;17;88
2024-03-30 13:39:54;24.7;18;89
2024-03-30 12:35:51;24.6;15;90
2024-03-30 11:31:55;24.6;11;90
2024-03-30 10:28:06;24.7;9;90
2024-03-30 09:24:19;24.8;9;89
2024-03-30 08:20:32;24.8;8;89
2024-03-30 07:16:45;24.8;9;89
2024-03-30 06:12:57;24.8;10;88
2024-03-30 05:09:07;24.8;11;88
2024-03-30 04:05:14;24.8;12;89
2024-03-30 03:01:19;24.9;12;89
2024-03-30 01:57:25;24.8;12;89
2024-03-30 00:53:30;24.8;12;89
2024-03-29 23:49:36;24.9;12;89
2024-03-29 22:45:42;24.9;12;89
2024-03-29 21:41:48;24.8;13;89
2024-03-29 20:37:52;24.9;13;89
2024-03-29 19:33:56;24.9;14;89
2024-03-29 18:29:58;24.9;15;88
2024-03-29 17:25:56;24.9;16;89
2024-03-29 16:21:58;24.9;15;89
2024-03-29 15:18:00;24.9;15;89
2024-03-29 14:14:02;24.9;15;89
2024-03-29 13:10:04;24.9;14;89
2024-03-29 12:06:07;24.9;14;89
2024-03-29 11:02:09;24.8;15;89
2024-03-29 09:58:12;24.9;13;89
2024-03-29 08:54:17;24.9;13;89
2024-03-29 07:50:23;24.9;12;89
2024-03-29 06:46:29;24.9;12;89
2024-03-29 05:42:35;24.9;13;89